Theta_e
281 280 280 280 280 279 279 279 279 280 280 280 280 280 280 280 280 278 277 277 277 277 277 277 278 279 279 279 281 282 283 284 281 283 286 289 288 287 288 287 288 287 288
280 280 280 280 279 279 278 279 279 279 280 280 280 280 280 280 279 278 278 278 277 277 277 276 277 279 277 278 279 279 280 281 281 279 282 283 285 287 287 287 288 288 287
278 278 278 278 278 278 278 279 279 279 279 279 279 278 279 279 278 278 278 278 277 277 277 277 277 277 277 277 278 278 279 280 280 280 280 282 284 285 284 284 285 286 286
278 278 277 277 277 277 278 277 277 277 276 276 276 277 277 277 277 278 278 278 277 277 278 278 277 277 277 277 278 278 279 278 279 278 278 279 281 283 283 282 283 283 284
276 276 275 276 276 276 275 275 274 274 274 274 273 273 273 273 274 274 275 275 274 275 276 278 278 279 280 280 279 278 278 277 277 277 277 278 278 279 280 282 281 282 284
274 274 275 274 274 273 273 272 272 271 271 271 270 270 270 271 274 275 274 272 273 273 272 274 275 276 278 281 282 282 281 278 276 277 278 278 279 280 281 281 281 281 279
273 273 273 272 270 270 270 269 269 268 268 268 268 267 267 267 271 273 274 272 271 270 270 271 272 273 273 274 276 278 280 281 281 279 277 277 278 280 281 281 281 281 281
270 269 270 269 267 268 267 267 266 266 266 265 265 265 265 266 270 271 272 270 269 269 269 269 269 270 271 271 271 271 273 275 277 277 277 276 277 277 278 279 280 282 283
269 269 268 267 265 265 263 264 264 263 263 263 264 263 263 263 268 270 270 268 268 268 269 269 269 269 272 274 272 270 271 272 276 278 280 281 282 282 281 279 277 278 278
268 267 267 266 261 262 263 262 262 261 262 262 262 262 262 261 266 268 269 268 266 267 268 269 271 270 273 274 272 270 269 271 272 272 274 275 277 276 279 277 276 275 277
266 265 265 264 261 261 261 261 260 259 260 259 260 261 261 262 262 268 270 268 267 267 267 268 269 273 274 274 275 272 271 273 272 272 272 272 273 275 275 276 277 277 276
264 263 260 258 258 260 257 258 258 258 257 257 258 259 261 262 265 267 270 271 272 269 268 269 269 273 274 275 275 275 276 276 273 272 271 270 270 271 273 275 278 279 280
257 254 254 257 258 259 257 258 258 258 257 258 259 259 260 262 263 268 270 271 272 270 271 271 275 276 277 276 275 275 273 270 269 267 267 267 269 271 272 273 275 277 279
250 255 257 257 258 258 259 260 258 258 258 259 259 260 262 265 266 267 267 268 271 272 274 272 273 275 277 276 272 273 271 271 270 269 269 269 270 269 269 271 270 272 272
254 257 257 257 256 258 260 259 260 262 263 263 264 265 264 264 266 272 272 271 271 273 274 271 269 269 268 269 270 269 268 268 267 268 267 267 267 268 269 270 270 270 271
255 257 257 258 258 259 259 259 264 266 268 269 270 269 268 270 272 273 273 274 275 274 268 262 262 263 264 265 265 266 267 268 268 267 266 267 267 267 268 270 270 270 270
250 255 257 258 257 257 257 257 256 259 265 266 267 268 270 270 271 272 272 272 270 268 260 260 261 261 262 263 264 265 265 267 269 268 268 267 268 269 269 269 271 275 273
249 254 254 255 254 255 256 255 255 255 255 257 262 265 268 269 271 270 270 265 259 260 259 259 259 260 261 262 264 265 268 268 267 267 266 267 267 268 269 269 272 274 274
250 251 252 253 254 253 254 254 254 254 255 255 257 261 262 266 269 267 267 259 258 258 259 259 260 261 262 263 264 266 267 268 267 266 266 267 268 268 269 271 273 274 276
248 252 254 249 251 251 251 252 253 253 254 255 256 256 258 263 258 258 259 259 259 259 260 260 261 262 263 264 264 265 266 268 268 266 266 266 267 267 268 270 273 275 277
248 248 252 249 247 249 251 250 252 253 253 254 255 256 267 259 256 257 258 260 260 260 260 261 262 262 264 265 265 265 265 266 268 269 270 269 270 270 272 274 276 274 273
247 246 245 245 249 252 250 251 251 251 251 252 254 255 263 255 255 256 258 259 260 261 262 262 262 264 265 266 266 265 265 266 266 267 268 269 270 270 270 270 270 270 270
248 247 246 246 248 252 252 249 249 250 250 250 252 253 253 253 254 255 256 258 260 260 262 262 263 264 266 267 268 268 266 266 267 267 267 268 268 268 269 268 268 268 268
247 246 247 248 247 250 250 250 250 251 251 250 249 251 252 252 253 254 255 257 259 260 261 261 262 263 264 266 268 269 269 268 267 267 267 267 267 267 267 267 267 267 267
244 245 246 248 246 250 249 250 250 249 249 249 250 250 252 252 253 254 255 257 258 259 260 261 262 262 263 264 267 268 270 268 267 267 267 267 266 266 266 266 266 265 265
245 246 248 249 249 250 250 250 249 249 249 250 250 250 251 252 253 253 254 256 257 258 260 261 261 262 262 264 268 269 271 271 267 267 267 266 265 265 265 264 264 264 264
Wind_Speed
5 5 6 6 7 6 6 6 6 6 6 7 6 8 9 9 9 7 7 7 7 9 7 7 10 8 8 7 6 6 8 8 13 10 8 12 11 9 8 7 8 9 9
3 4 4 5 5 5 6 6 6 6 7 7 9 10 10 10 9 9 10 10 11 13 13 11 13 8 11 9 7 10 9 8 10 18 10 8 13 10 10 11 10 9 9
4 5 6 6 6 6 6 6 6 6 6 7 8 9 11 11 11 11 11 12 12 13 13 14 15 13 13 10 10 10 9 9 10 12 13 7 9 9 9 8 9 10 9
6 6 5 4 4 3 4 4 5 5 7 7 8 10 11 12 13 13 13 14 14 14 15 15 16 15 16 15 12 13 12 11 11 11 13 11 9 9 8 10 11 6 9
5 4 3 3 4 5 7 8 8 9 9 10 12 12 12 12 10 14 15 16 17 18 18 18 16 17 24 24 14 15 13 12 11 12 14 11 10 8 10 8 10 8 10
4 4 5 5 7 8 9 10 11 11 11 12 12 13 14 11 23 27 24 17 18 18 18 17 17 21 20 29 31 34 28 17 17 15 13 13 16 11 9 8 10 9 11
4 5 5 6 7 8 9 9 10 11 12 12 12 13 14 15 25 27 27 16 17 16 17 17 16 14 19 18 24 31 27 31 33 22 19 17 17 13 13 12 12 11 14
4 3 3 6 6 8 9 10 10 10 11 12 13 13 14 13 26 28 28 17 15 16 16 16 18 18 16 19 19 20 20 21 19 17 20 20 19 18 16 17 17 16 14
3 2 4 5 6 9 9 10 10 11 11 11 12 13 14 14 26 28 25 16 15 16 15 16 16 18 23 28 20 19 19 20 21 33 36 34 34 36 33 16 15 14 16
1 4 4 5 3 8 9 10 9 9 12 11 12 13 15 15 23 26 23 12 14 12 14 15 22 21 29 29 19 16 18 17 16 17 17 23 30 28 39 27 17 17 17
1 3 4 4 6 8 8 8 9 10 11 11 13 12 13 14 16 25 26 14 12 12 12 12 11 26 29 29 29 17 18 21 23 20 17 16 16 15 14 16 20 19 19
3 3 3 4 6 6 7 8 8 9 11 11 11 11 10 12 19 22 27 27 25 15 15 13 15 29 32 33 29 32 35 32 14 11 11 11 11 13 14 16 16 18 18
2 4 4 5 6 7 8 9 8 8 8 9 9 10 11 11 10 24 27 29 29 20 14 21 34 35 36 29 29 32 29 14 13 14 15 15 14 13 17 16 18 20 22
3 5 5 4 5 6 6 7 6 7 8 9 10 11 11 11 10 11 12 14 21 18 19 15 20 26 30 28 20 20 14 14 15 15 14 14 13 13 14 12 15 15 14
3 5 5 4 5 7 7 7 7 9 11 11 10 11 11 12 12 25 23 14 13 17 20 10 11 12 13 13 13 12 12 13 14 14 14 13 13 13 13 12 13 14 16
2 4 4 5 4 5 6 10 15 17 21 21 22 17 10 23 28 29 30 30 30 29 12 10 10 11 12 13 13 14 13 15 12 13 12 12 12 12 14 13 13 13 16
3 5 5 5 5 5 6 6 10 17 19 12 17 22 24 24 27 28 27 27 25 20 7 9 10 11 12 13 13 13 15 13 13 10 9 9 10 12 11 12 16 12 15
3 7 5 5 4 4 5 6 6 7 11 14 14 19 20 25 27 25 25 19 12 12 8 10 11 11 12 13 13 13 15 11 9 8 9 10 11 12 11 12 13 12 10
4 3 3 4 4 5 5 5 5 7 7 8 13 17 16 26 24 21 22 6 9 10 10 10 11 11 12 12 13 13 15 11 8 8 9 10 10 10 11 11 10 12 10
3 5 5 3 3 4 4 4 5 5 7 6 8 8 12 11 11 12 10 10 9 9 10 11 11 11 12 12 12 12 12 13 9 8 9 10 10 10 12 12 11 10 8
2 2 5 3 3 4 4 4 4 5 6 6 8 8 21 9 9 9 10 10 10 10 11 11 12 12 12 12 11 12 12 11 11 10 6 7 8 9 10 10 9 2 4
3 2 2 3 3 4 3 4 3 5 6 6 8 7 19 6 7 8 9 10 10 10 10 10 11 11 11 12 11 11 11 11 11 10 9 7 6 5 4 4 4 5 5
3 2 2 3 3 4 3 3 4 4 6 5 6 7 7 7 7 8 9 10 10 11 11 10 11 12 12 12 12 9 10 11 10 10 9 8 7 6 5 5 5 6 6
3 3 3 3 2 3 3 4 4 6 7 5 5 6 6 7 7 9 9 9 9 10 10 10 11 15 14 14 13 11 9 9 9 9 11 8 7 7 7 7 7 8 8
3 3 3 4 3 4 4 4 4 4 6 5 5 4 6 7 7 7 8 9 9 10 11 11 10 15 16 20 19 22 15 15 13 13 8 9 10 11 9 8 8 9 10
3 4 4 3 4 4 4 4 5 4 6 5 5 5 6 7 7 7 8 9 10 11 12 10 12 18 19 14 16 21 21 17 14 16 9 9 9 8 8 9 12 8 10
Wind_Direction
16 8 15 7 8 2 0 350 347 333 333 332 325 322 320 319 319 318 311 296 294 300 287 262 276 273 274 271 262 254 255 250 265 269 263 282 280 272 267 252 253 253 255
331 359 357 355 356 355 348 339 337 329 325 321 319 316 314 310 306 300 299 296 292 295 296 292 284 279 273 266 262 263 259 253 266 277 268 268 272 271 266 261 262 254 253
4 13 12 12 8 354 337 325 321 313 306 306 307 304 304 300 297 294 289 288 283 279 279 276 277 283 280 277 267 263 265 268 264 272 277 264 263 275 273 259 258 257 252
49 50 41 8 345 341 333 330 328 326 320 320 315 310 310 307 306 302 296 291 284 278 276 273 273 272 274 278 275 272 270 267 267 268 275 270 258 252 258 270 271 239 260
52 56 30 360 4 6 356 346 337 331 328 325 322 316 313 308 306 309 308 305 299 295 292 289 284 278 272 270 271 274 272 272 273 273 272 275 266 252 239 254 261 271 259
59 39 7 8 8 357 345 338 331 327 326 321 317 314 311 307 310 307 303 296 292 290 291 291 293 292 286 289 283 275 269 268 269 269 266 266 270 264 260 250 253 258 277
49 23 14 15 355 340 332 325 323 320 318 313 312 310 306 304 304 303 304 300 298 292 291 292 292 290 297 296 295 294 295 279 272 273 268 267 275 274 276 259 248 243 252
42 26 22 352 333 327 325 321 316 314 313 312 310 305 298 300 305 307 305 299 294 293 291 290 289 291 289 290 287 282 279 274 274 265 262 267 269 271 264 269 274 272 262
9 8 351 334 320 321 315 314 315 311 309 305 301 304 299 297 303 305 308 300 293 291 287 285 285 284 286 289 284 281 276 272 274 276 274 271 268 269 268 267 258 255 250
359 335 324 312 298 308 305 307 307 303 301 304 300 298 293 293 297 302 304 294 289 287 285 280 278 280 283 286 284 283 280 280 279 275 268 267 269 265 265 263 265 255 260
351 296 290 308 300 290 295 302 304 301 302 298 295 295 289 285 285 297 301 297 291 285 280 279 274 279 286 288 286 279 275 278 275 276 272 268 266 268 264 249 247 243 244
243 264 281 276 287 297 290 293 289 291 291 292 293 293 287 284 283 291 298 298 293 292 286 279 277 282 283 279 276 268 267 270 270 273 272 274 272 267 269 266 269 249 243
330 284 279 284 288 287 286 290 293 291 291 295 296 294 292 288 277 282 287 289 284 282 274 272 278 282 285 291 293 288 288 278 270 266 266 267 265 263 263 267 276 256 270
283 290 289 280 294 282 277 285 287 289 291 287 289 286 288 297 300 294 280 275 274 280 284 279 274 281 280 279 283 278 269 263 258 257 258 261 264 262 258 257 259 266 269
256 286 287 282 280 292 285 290 285 283 283 292 302 301 307 308 303 308 316 314 306 301 312 317 314 309 301 295 290 280 268 264 257 256 257 260 262 261 260 254 257 258 255
294 290 279 287 292 291 296 303 302 307 309 312 312 315 315 311 316 322 317 316 322 332 332 323 308 305 301 300 297 293 284 278 260 251 250 250 255 262 264 262 255 246 255
221 277 282 281 279 293 306 304 313 319 320 323 323 327 323 328 329 327 337 335 345 340 324 312 305 305 303 300 297 294 287 280 274 266 255 247 255 264 282 268 278 231 226
232 257 261 264 268 282 290 294 293 297 312 320 326 323 329 336 334 346 345 350 333 338 322 314 308 306 304 302 301 301 303 291 271 265 258 255 257 259 269 271 285 231 234
221 229 244 258 260 269 280 281 283 288 286 295 311 324 330 329 339 346 347 335 324 321 319 315 310 309 308 307 306 308 310 299 270 256 258 259 257 258 262 271 268 269 255
226 243 252 245 262 275 268 272 292 293 291 304 305 311 314 325 343 334 336 332 329 322 318 316 315 312 310 314 315 315 317 322 304 258 252 251 254 252 256 263 266 270 268
221 243 253 266 259 257 260 266 279 290 287 297 296 304 323 353 317 321 323 328 326 323 320 319 318 316 317 318 321 322 322 323 326 326 302 275 266 261 258 258 264 227 126
191 222 246 250 260 271 267 265 271 285 279 290 301 307 330 321 317 318 321 323 323 320 318 317 318 322 322 327 326 326 327 328 328 330 327 328 332 340 353 15 46 71 91
204 227 261 263 248 279 282 274 276 283 283 285 296 307 317 317 315 316 316 317 322 323 324 324 324 328 330 334 331 330 331 334 331 333 335 340 352 1 14 39 54 69 78
208 220 240 254 256 261 272 277 277 283 283 282 287 294 299 304 305 310 310 314 319 320 322 326 325 329 331 334 342 340 343 346 346 347 354 357 6 13 31 45 53 66 77
210 226 232 246 247 269 281 272 274 280 279 280 292 295 298 295 302 310 310 316 319 322 322 324 326 332 334 332 346 351 0 9 8 6 5 14 27 33 40 49 56 63 69
222 230 238 240 251 248 258 276 278 285 282 291 289 291 293 294 299 303 309 318 325 320 323 323 324 329 331 336 341 356 358 22 21 17 18 26 32 33 41 51 56 60 67